Change the Weather History Date:

Monday, April 16, 2012

  Actual Average Record
Temperature  
Mean Temperature 77 °F 76 °F  
Max Temperature 80 °F 83 °F 92 °F (1999)
Min Temperature 73 °F 70 °F 45 °F (1952)
Degree Days  
Heating Degree Days 0 0  
Month to date heating degree days 0 0  
Since 1 July heating degree days 65 111  
Cooling Degree Days 12 11  
Month to date cooling degree days 185 167  
Year to date cooling degree days 935 777  
Growing Degree Days 26 (Base 50)    
Moisture  
Dew Point 59 °F    
Average Humidity 55    
Maximum Humidity 64    
Minimum Humidity 45    
Precipitation  
Precipitation T in 0.09 in 3.16 in (1942)
Month to date precipitation 2.38 1.68  
Year to date precipitation 5.66 11.63  
Snow  
Snow 0.00 in - - ()
Month to date snowfall 0.0  
Since 1 July snowfall 0.0  
Snow Depth 0.00 in    
Sea Level Pressure  
Sea Level Pressure 30.16 in    
Wind  
Wind Speed 15 mph (ESE)    
Max Wind Speed 21 mph    
Max Gust Speed 26 mph    
Visibility 10 miles    
Events      
T = Trace of Precipitation, MM = Missing Value Source: NWS Daily Summary

Daily Weather History Graph

Daily Weather History Graph

Search for Another Location

Airport or City:

Trip Planner

Search our weather history database for the weather conditions in past years. The results will help you decide how hot, cold, wet, or windy it might be!

Date:

Astronomy

Apr. 16, 2012 Rise Set
Actual Time 6:56 AM EDT 7:44 PM EDT
Civil Twilight 6:32 AM EDT 8:08 PM EDT
Nautical Twilight 6:04 AM EDT 8:36 PM EDT
Astronomical Twilight 5:36 AM EDT 9:04 PM EDT
Moon 3:59 AM EDT (4/16) 3:59 PM EDT (4/16)
Length of Visible Light 13h 36m
Length of Day
12h 48m
Waning Crescent, 19% of the Moon is Illuminated
Apr 16
Waning Crescent
Apr 21
New
Apr 29
First Quarter
May 5
Full
May 12
Last Quarter

Hourly Weather History & Observations

Time (EDT) Temp. Dew Point Humidity Pressure Visibility Wind Dir Wind Speed Gust Speed Precip Events Conditions
12:53 AM 73.9 °F 57.0 °F 55% 30.17 in 10.0 mi ESE 13.8 mph - N/A   Partly Cloudy
1:53 AM 73.9 °F 57.0 °F 55% 30.16 in 10.0 mi ESE 13.8 mph - N/A   Partly Cloudy
2:53 AM 73.9 °F 60.1 °F 62% 30.14 in 10.0 mi SE 15.0 mph - N/A   Partly Cloudy
3:53 AM 73.9 °F 59.0 °F 59% 30.12 in 10.0 mi ESE 13.8 mph 21.9 mph N/A   Mostly Cloudy
4:53 AM 73.9 °F 60.1 °F 62% 30.11 in 10.0 mi ESE 16.1 mph 24.2 mph N/A   Mostly Cloudy
5:53 AM 73.9 °F 57.9 °F 57% 30.12 in 10.0 mi SE 15.0 mph - N/A   Scattered Clouds
6:53 AM 73.9 °F 59.0 °F 59% 30.14 in 10.0 mi SE 16.1 mph 24.2 mph N/A   Mostly Cloudy
7:53 AM 75.0 °F 54.0 °F 48% 30.15 in 10.0 mi ESE 13.8 mph - N/A   Mostly Cloudy
8:53 AM 75.9 °F 55.0 °F 48% 30.16 in 10.0 mi SE 15.0 mph 23.0 mph N/A   Mostly Cloudy
9:53 AM 78.1 °F 55.9 °F 46% 30.18 in 10.0 mi SE 15.0 mph 24.2 mph N/A   Scattered Clouds
10:53 AM 77.0 °F 59.0 °F 54% 30.20 in 10.0 mi SE 15.0 mph - N/A   Overcast
11:53 AM 79.0 °F 60.1 °F 52% 30.21 in 10.0 mi ESE 16.1 mph - N/A   Overcast
12:53 PM 75.9 °F 61.0 °F 60% 30.20 in 10.0 mi SE 10.4 mph 16.1 mph 0.00 in   Overcast
1:53 PM 78.1 °F 62.1 °F 58% 30.19 in 10.0 mi SE 13.8 mph - N/A   Overcast
2:53 PM 79.0 °F 61.0 °F 54% 30.18 in 10.0 mi ESE 13.8 mph 21.9 mph 0.00 in   Mostly Cloudy
3:53 PM 79.0 °F 61.0 °F 54% 30.16 in 10.0 mi ESE 18.4 mph - N/A   Mostly Cloudy
4:53 PM 79.0 °F 59.0 °F 50% 30.15 in 10.0 mi East 16.1 mph - N/A   Mostly Cloudy
5:53 PM 79.0 °F 59.0 °F 50% 30.15 in 10.0 mi East 15.0 mph 24.2 mph N/A   Scattered Clouds
6:53 PM 77.0 °F 60.1 °F 56% 30.15 in 10.0 mi ESE 15.0 mph - N/A   Scattered Clouds
7:53 PM 75.9 °F 62.1 °F 62% 30.16 in 10.0 mi East 16.1 mph - N/A   Mostly Cloudy
8:53 PM 75.0 °F 61.0 °F 62% 30.16 in 10.0 mi ESE 15.0 mph - N/A   Scattered Clouds
9:53 PM 75.0 °F 59.0 °F 57% 30.17 in 10.0 mi ESE 12.7 mph 21.9 mph N/A   Scattered Clouds
10:53 PM 75.9 °F 57.9 °F 54% 30.16 in 10.0 mi East 17.3 mph - N/A   Mostly Cloudy
11:53 PM 75.0 °F 59.0 °F 57% 30.14 in 10.0 mi ESE 13.8 mph - N/A   Partly Cloudy